Location: Alvediston
(51.0078°N, 2.0364°W)
Time: 05:56:15
(UTC+00:00)

Cosmos 841 Rocket - Pass Details

Date: 27 February 2020
Orbit: 746 x 773 km, 74.0° (Epoch: 28 March)

Event Time Altitude Azimuth Distance (km) Brightness Sun altitude
Rises 19:00:52 0° 170° (S) 3,181 6.6 -12.7°
Reaches altitude 10° 19:03:28 10° 159° (SSE) 2,264 5.7 -13.1°
Maximum altitude 19:07:50 29° 101° (E) 1,357 4.2 -13.8°
Drops below altitude 10° 19:12:15 10° 42° (NE) 2,292 5.6 -14.5°
Sets 19:14:53 0° 32° (NNE) 3,226 6.5 -14.9°
